Tracking 19794 objects as of 23-Jul-2019
HD Live streaming from Space Station
objects crossing your sky now

COSMOS 1437

Track COSMOS 1437 now!
10-day predictions
COSMOS 1437 is classified as:


NORAD ID: 13770
Int'l Code: 1983-003A
Perigee: 391.0 km
Apogee: 397.7 km
Inclination: 81.2 °
Period: 92.3 minutes
Semi major axis: 6765 km
RCS: 7.8902 m2 (large)
Launch date: January 20, 1983
Source: Commonwealth of Independent States (former USSR) (CIS)
Launch site: PLESETSK MISSILE AND SPACE COMPLEX (PKMTR)
aabbcc
Your satellite tracking list
Your tracking list is empty




NASA's NSSDC Master Catalog

Two Line Element Set (TLE):
1 13770U 83003A   19203.79323886  .00004108  00000-0  50097-4 0  9991
2 13770  81.1523 281.7603 0004945  64.5023 295.6741 15.60155420  5579
Source of the keplerian elements: AFSPC